Regional Weather Roundup
Issued by NWS

Home | Current Version | Previous Version | Text Only | Print | Product List | Glossary On
Versions: 1 2 3 4 5 6 7 8 9 10 11 12 13 14 15 16 17 18 19 20 21 22 23 24 25 26 27 28 29 30 31 32 33 34 35 36 37 38 39 40 41 42 43 44 45 46 47 48 49 50
000
ASUS42 KKEY 250410
RWRKEY

FLORIDA REGIONAL WEATHER ROUNDUP FOR THE FLORIDA KEYS
NATIONAL WEATHER SERVICE KEY WEST FLORIDA
1200 AM EDT SAT MAR 25 2017

...SOUTH FLORIDA AND THE KEYS...

CITY           SKY/WX    TMP DP  RH WIND       PRES   REMARKS
FORT MYERS     CLEAR     69  59  70 E8        30.24S
SW REGIONAL AP CLEAR     67  57  70 E12       30.25S
NAPLES         CLEAR     68  62  81 NE8       30.23S
MIAMI          LGT RAIN  72  63  73 E14       30.23S
WEST KENDALL   CLOUDY    73  62  68 E14       30.22F
HOMESTEAD      PTCLDY    72  64  76 E16       30.21S
MARATHON       MOCLDY    76  65  68 E15G24    30.19S
BOCA CHICA NAS PTCLDY    74  65  73 E17       30.18S
KEY WEST INTL  CLEAR     75  66  73 E14G22    30.19R

...INTERNATIONAL WEATHER...

CITY           SKY/WX    TMP DP  RH WIND       PRES   REMARKS
NASSAU BAHAMAS PTCLDY    75  54  46 NE13      30.23S
CANCUN MEXICO  PTCLDY    75  68  78 E5        30.10R
COZUMEL MEXICO   N/A    N/A N/A N/A MISG        N/A

ADJACENT COASTAL WATERS...

STATION/POSITION TIME  SKY/WX   TEMP    WIND        PRES    WAVE
                                AIR SEA DIR/SP/G            HT/PER
                 (UTC)          (F)     (DEG/KT/KT) (MB)    (FT/S)
PULASKI SHOAL LI 0400            73      90/ 22/ 24 1021.9R
SAND KEY         0350            75     100/ 25/ 29 1022.1R
LONG KEY         0300            74 75   90/ 19/ 22 1022.6R
MOLASSES REEF    0400            72 76  120/ 24/ 26 1022.8S
FOWEY ROCKS      0400            74 75   90/ 24/ 26 1023.8F
Buoy 42097       0400                                 N/A     3/ 5

$$



USA.gov is the U.S. government's official web portal to all federal, state and local government web resources and services.